Location: Unspecified
(0.0000°N, 0.0000°E)
Time: 03:52:55
(UTC+00:00)

CZ-6A DEB - Pass Details

Date: 22 October 2025
Orbit: 818 x 870 km, 98.8° (Epoch: 17 November)

Event Time Altitude Azimuth Distance (km) Brightness Sun altitude
Rises 04:27:59 0° 54° (NE) 3,395 ? -18.8°
Reaches altitude 10° 04:32:54 10° 94° (E) 2,449 ? -17.6°
Maximum altitude 04:33:46 10° 103° (ESE) 2,421 ? -17.3°
Drops below altitude 10° 04:34:38 10° 113° (ESE) 2,445 ? -17.1°
Sets 04:39:28 0° 152° (SSE) 3,368 ? -15.9°
